Rickenbacker, OH

5:59 AM EDT on March 27, 2017 (GMT -0400)
Rickenbacker International

Weather History for KLCK - July, 2013

Change the Weather History Date:

Friday, July 19, 2013

  Actual Average Record
Temperature  
Mean Temperature 82 °F -  
Max Temperature 93 °F 84 °F 95 °F (1999)
Min Temperature 72 °F 62 °F 60 °F (2000)
Cooling Degree Days 18    
Growing Degree Days 32 (Base 50)    
Moisture  
Dew Point 69 °F    
Average Humidity 68    
Maximum Humidity 86    
Minimum Humidity 42    
Precipitation  
Precipitation 0.00 in - - ()
Sea Level Pressure  
Sea Level Pressure 29.99 in    
Wind  
Wind Speed 6 mph (SSW)    
Max Wind Speed 18 mph    
Max Gust Speed 26 mph    
Visibility 8 miles    
Events Thunderstorm    
Averages and records for this station are not official NWS values.
T = Trace of Precipitation, MM = Missing Value Source: NWS Daily Summary

Daily Weather History Graph

Daily Weather History Graph

Search for Another Location

Airport or City:

Trip Planner

Search our weather history database for the weather conditions in past years. The results will help you decide how hot, cold, wet, or windy it might be!

Date:

Astronomy

Jul. 19, 2013 Rise Set
Actual Time 6:19 AM EDT 8:56 PM EDT
Civil Twilight 5:48 AM EDT 9:27 PM EDT
Nautical Twilight 5:08 AM EDT 10:06 PM EDT
Astronomical Twilight 4:24 AM EDT 10:50 PM EDT
Moon 5:57 PM EDT (7/19) 2:59 AM EDT (7/19)
Length of Visible Light 15h 39m
Length of Day
14h 36m
Waxing Gibbous, 86% of the Moon is Illuminated
Jul 19
Waxing Gibbous
Jul 22
Full
Jul 29
Last Quarter
Aug 6
New
Aug 14
First Quarter

Hourly Weather History & Observations

Time (EDT) Temp. Heat Index Dew Point Humidity Pressure Visibility Wind Dir Wind Speed Gust Speed Precip Events Conditions
12:15 AM 76.1 °F - 69.4 °F 80% 30.06 in 10.0 mi South 4.6 mph - N/A   Clear
12:35 AM 75.9 °F - 69.4 °F 80% 30.06 in 10.0 mi South 3.5 mph - N/A   Clear
12:55 AM 75.6 °F - 69.1 °F 80% 30.05 in 10.0 mi SSW 4.6 mph - N/A   Clear
1:15 AM 76.5 °F - 69.3 °F 78% 30.05 in 10.0 mi South 4.6 mph - N/A   Clear
1:35 AM 75.6 °F - 68.9 °F 80% 30.05 in 10.0 mi South 4.6 mph - N/A   Clear
1:55 AM 74.8 °F - 68.9 °F 82% 30.05 in 10.0 mi South 4.6 mph - N/A   Clear
2:15 AM 75.0 °F - 68.9 °F 81% 30.04 in 10.0 mi SSW 4.6 mph - N/A   Clear
2:35 AM 75.9 °F - 69.1 °F 79% 30.04 in 10.0 mi SSW 4.6 mph - N/A   Clear
2:55 AM 75.6 °F - 69.1 °F 80% 30.03 in 10.0 mi SSW 4.6 mph - N/A   Clear
3:15 AM 75.0 °F - 68.7 °F 81% 30.04 in 7.0 mi SW 3.5 mph - N/A   Clear
3:35 AM 74.1 °F - 68.4 °F 82% 30.03 in 7.0 mi South 4.6 mph - N/A   Clear
3:55 AM 73.6 °F - 68.4 °F 84% 30.03 in 7.0 mi South 3.5 mph - N/A   Clear
4:15 AM 73.6 °F - 68.2 °F 83% 30.03 in 7.0 mi Calm Calm - N/A   Clear
4:35 AM 73.4 °F - 68.2 °F 84% 30.03 in 7.0 mi Calm Calm - N/A   Clear
4:55 AM 73.2 °F - 68.0 °F 84% 30.02 in 5.0 mi South 3.5 mph - N/A   Haze
5:15 AM 72.5 °F - 67.8 °F 85% 30.02 in 5.0 mi South 3.5 mph - N/A   Haze
5:35 AM 72.5 °F - 67.8 °F 85% 30.02 in 4.0 mi SSE 4.6 mph - N/A   Clear
5:55 AM 72.3 °F - 67.8 °F 86% 30.02 in 4.0 mi South 3.5 mph - N/A   Clear
6:15 AM 72.1 °F - 67.6 °F 86% 30.02 in 2.5 mi Calm Calm - N/A   Clear
6:35 AM 72.3 °F - 67.8 °F 86% 30.02 in 2.5 mi South 3.5 mph - N/A   Haze
6:55 AM 72.1 °F - 67.6 °F 86% 30.02 in 2.5 mi Calm Calm - N/A   Clear
7:15 AM 72.7 °F - 68.2 °F 86% 30.02 in 2.5 mi Calm Calm - N/A   Clear
7:35 AM 73.8 °F - 69.1 °F 85% 30.02 in 2.5 mi South 4.6 mph - N/A   Clear
7:55 AM 75.0 °F - 69.6 °F 83% 30.03 in 4.0 mi South 5.8 mph - N/A   Haze
8:15 AM 76.3 °F - 70.0 °F 81% 30.03 in 4.0 mi SSW 5.8 mph - N/A   Haze
8:35 AM 78.1 °F - 70.3 °F 77% 30.03 in 5.0 mi SW 5.8 mph - N/A   Haze
8:55 AM 79.9 °F - 70.9 °F 74% 30.03 in 7.0 mi SW 6.9 mph - N/A   Clear
9:15 AM 81.3 °F 85.4 °F 71.2 °F 71% 30.03 in 7.0 mi SW 8.1 mph - N/A   Clear
9:35 AM 82.6 °F 87.6 °F 71.8 °F 70% 30.03 in 7.0 mi SSW 6.9 mph - N/A   Clear
9:55 AM 83.8 °F 89.5 °F 72.3 °F 68% 30.03 in 7.0 mi SW 6.9 mph - N/A   Clear
10:15 AM 85.5 °F 92.2 °F 72.9 °F 66% 30.03 in 10.0 mi WSW 6.9 mph - N/A   Clear
10:35 AM 86.5 °F 93.3 °F 72.5 °F 63% 30.03 in 10.0 mi SW 8.1 mph - N/A   Clear
10:55 AM 87.8 °F 94.3 °F 72.0 °F 59% 30.03 in 10.0 mi SW 9.2 mph - N/A   Clear
11:15 AM 88.5 °F 94.9 °F 71.8 °F 57% 30.03 in 10.0 mi SW 9.2 mph - N/A   Clear
11:35 AM 89.4 °F 96.3 °F 71.8 °F 56% 30.03 in 10.0 mi SW 9.2 mph - N/A   Scattered Clouds
11:55 AM 90.1 °F 97.3 °F 72.0 °F 55% 30.02 in 10.0 mi WSW 12.7 mph - N/A   Mostly Cloudy
12:15 PM 90.7 °F 96.9 °F 70.7 °F 52% 30.02 in 10.0 mi SW 11.5 mph - N/A   Scattered Clouds
12:35 PM 90.9 °F 97.3 °F 71.1 °F 52% 30.01 in 10.0 mi WSW 12.7 mph - N/A   Scattered Clouds
12:55 PM 90.0 °F 95.4 °F 70.2 °F 52% 30.00 in 10.0 mi WSW 11.5 mph - N/A   Mostly Cloudy
1:15 PM 91.2 °F 96.5 °F 69.8 °F 49% 29.99 in 10.0 mi SW 13.8 mph - N/A   Mostly Cloudy
1:35 PM 91.6 °F 96.7 °F 69.6 °F 48% 29.98 in 10.0 mi SW 12.7 mph 17.3 mph N/A   Scattered Clouds
1:55 PM 92.5 °F 96.9 °F 68.5 °F 45% 29.97 in 10.0 mi SW 11.5 mph - N/A   Scattered Clouds
2:15 PM 92.5 °F 96.9 °F 68.4 °F 45% 29.95 in 10.0 mi SW 11.5 mph 16.1 mph N/A   Scattered Clouds
2:35 PM 93.2 °F 97.7 °F 68.5 °F 44% 29.95 in 10.0 mi WSW 13.8 mph 18.4 mph N/A Thunderstorm Clear
2:55 PM 93.4 °F 97.0 °F 67.3 °F 42% 29.94 in 10.0 mi WSW 18.4 mph 23.0 mph N/A Thunderstorm Scattered Clouds
3:15 PM 91.4 °F 95.8 °F 68.5 °F 47% 29.94 in 10.0 mi West 11.5 mph - N/A Thunderstorm Scattered Clouds
3:35 PM 91.0 °F 96.1 °F 69.3 °F 49% 29.94 in 10.0 mi WSW 15.0 mph - N/A Thunderstorm Scattered Clouds
3:55 PM 86.7 °F 89.0 °F 66.2 °F 50% 29.94 in 10.0 mi WNW 12.7 mph 26.5 mph N/A Thunderstorm Thunderstorm
4:15 PM 82.9 °F 83.8 °F 62.8 °F 50% 29.93 in 10.0 mi West 5.8 mph - N/A   Clear
4:35 PM 82.9 °F 84.4 °F 64.2 °F 53% 29.95 in 10.0 mi WSW 5.8 mph - N/A Thunderstorm Clear
4:55 PM 83.5 °F 85.3 °F 65.1 °F 54% 29.94 in 10.0 mi SW 6.9 mph - N/A   Clear
5:15 PM 85.6 °F 87.9 °F 66.4 °F 52% 29.93 in 10.0 mi SW 9.2 mph - N/A   Clear
5:35 PM 87.1 °F 89.9 °F 67.1 °F 51% 29.92 in 10.0 mi SW 8.1 mph - N/A   Clear
5:55 PM 88.5 °F 91.9 °F 67.8 °F 50% 29.92 in 10.0 mi SW 9.2 mph - N/A   Clear
6:15 PM 88.7 °F 92.2 °F 68.0 °F 50% 29.93 in 10.0 mi WSW 9.2 mph - N/A   Clear
6:35 PM 87.3 °F 91.6 °F 69.4 °F 55% 29.93 in 10.0 mi SW 10.4 mph - N/A   Clear
6:55 PM 86.9 °F 91.7 °F 69.8 °F 57% 29.91 in 10.0 mi SSW 8.1 mph - N/A   Clear
7:15 PM 86.4 °F 91.4 °F 70.3 °F 59% 29.92 in 10.0 mi South 6.9 mph - N/A   Clear
7:35 PM 84.6 °F 90.0 °F 71.4 °F 65% 29.93 in 7.0 mi South 9.2 mph - N/A   Clear
7:55 PM 83.8 °F 88.3 °F 70.3 °F 64% 29.93 in 10.0 mi South 9.2 mph - N/A   Clear
8:15 PM 82.6 °F 87.1 °F 71.2 °F 68% 29.92 in 10.0 mi South 10.4 mph - N/A   Clear
8:35 PM 82.2 °F 86.4 °F 70.7 °F 68% 29.92 in 10.0 mi SSW 11.5 mph 16.1 mph N/A   Clear
8:55 PM 82.2 °F 86.0 °F 69.8 °F 66% 29.93 in 10.0 mi SSW 9.2 mph - N/A   Clear
9:15 PM 81.1 °F 84.7 °F 70.2 °F 69% 29.92 in 10.0 mi South 11.5 mph - N/A   Clear
9:35 PM 79.7 °F - 69.8 °F 72% 29.92 in 10.0 mi South 10.4 mph - N/A   Clear
9:55 PM 78.4 °F - 68.7 °F 72% 29.92 in 10.0 mi South 8.1 mph - N/A   Clear
10:15 PM 77.4 °F - 68.5 °F 74% 29.92 in 10.0 mi SSW 9.2 mph - N/A   Clear
10:35 PM 76.6 °F - 68.4 °F 75% 29.92 in 10.0 mi South 10.4 mph - N/A   Clear
10:55 PM 76.3 °F - 68.2 °F 76% 29.92 in 10.0 mi South 6.9 mph - N/A   Clear
11:15 PM 75.6 °F - 67.8 °F 77% 29.92 in 10.0 mi South 10.4 mph - N/A   Clear
11:35 PM 75.2 °F - 67.5 °F 77% 29.92 in 10.0 mi South 9.2 mph - N/A   Clear
11:55 PM 75.2 °F - 67.1 °F 76% 29.92 in 10.0 mi South 11.5 mph 18.4 mph N/A   Clear